Location: Strohbehn Observatory
(42.4649°N, 93.8239°W)
Time: 05:09:41
(UTC-05:00)

SL-16 R/B - Visible Passes

Search period start: 16 April 2014 00:00
Search period end: 26 April 2014 00:00
Orbit: 844 x 846 km, 71.0° (Epoch: 15 April)

Date Brightness Start Highest point End Pass type
(mag) Time Alt. Az. Time Alt. Az. Time Alt. Az.
23 Apr 5.2 05:41:08 10° ESE 05:43:13 12° E 05:45:18 10° ENE visible
24 Apr 5.2 05:27:17 10° ESE 05:29:06 12° E 05:30:55 10° ENE visible
25 Apr 5.2 05:13:31 10° ESE 05:14:59 11° E 05:16:28 10° E visible
